EW1315 Weather Reports


time (UTC)temp
F
wind
direction
speed
knots
gust
knots
rain 1hr
in
rain 24hr
in
rain mn
in
humidity
%
barometer
mb
20260510202003 50 102 0.9 2.6 0.00 0.00 0.00 58 1012.3
20260510201503 50 104 0.9 1.7 0.00 0.00 0.00 58 1012.2
20260510201003 50 104 0.9 2.6 0.00 0.00 0.00 57 1012.4
20260510200503 50 102 0.9 2.6 0.00 0.00 0.00 56 1012.4
20260510200004 51 96 0.9 2.6 0.00 0.00 0.00 55 1012.5
20260510195503 51 99 0.9 2.6 0.00 0.00 0.00 54 1012.4
20260510195003 51 98 0.9 2.6 0.00 0.00 0.00 53 1012.4
20260510194503 51 95 0.9 3.5 0.00 0.00 0.00 53 1012.5
20260510194003 52 100 0.9 3.5 0.00 0.00 0.00 53 1012.7
20260510193503 52 95 0.9 3.5 0.00 0.00 0.00 52 1012.6
20260510193003 53 96 0.9 2.6 0.00 0.00 0.00 51 1012.7
20260510192503 53 104 0.9 2.6 0.00 0.00 0.00 51 1012.5
20260510192003 53 111 0.9 2.6 0.00 0.00 0.00 50 1012.7
20260510191504 54 117 0.9 3.5 0.00 0.00 0.00 50 1012.6
20260510191004 54 117 0.9 3.5 0.00 0.00 0.00 49 1012.6
20260510190503 54 107 0.9 2.6 0.00 0.00 0.00 48 1012.8
20260510190003 54 97 0.9 3.5 0.00 0.00 0.00 48 1012.5
20260510185503 55 94 0.9 3.5 0.00 0.00 0.00 48 1012.7
20260510185213 55 88 0.9 3.5 0.00 0.00 0.00 47 1012.5
20260510184503 55 92 0.9 2.6 0.00 0.00 0.00 48 1012.5
20260510184003 56 98 0.9 2.6 0.00 0.00 0.00 48 1012.5
20260510183503 56 102 0.9 2.6 0.00 0.00 0.00 47 1012.4
20260510183003 57 96 0.9 3.5 0.00 0.00 0.00 46 1012.2
20260510182503 57 102 0.9 3.5 0.00 0.00 0.00 46 1012.2
20260510182003 56 114 0.9 3.5 0.00 0.00 0.00 46 1012.0
20260510181503 57 113 0.9 3.5 0.00 0.00 0.00 47 1012.1
20260510181003 57 114 1.7 4.3 0.00 0.00 0.00 46 1012.0
20260510180503 57 106 1.7 5.2 0.00 0.00 0.00 45 1012.2
20260510180003 58 129 1.7 5.2 0.00 0.00 0.00 43 1012.3
20260510175503 59 148 1.7 4.3 0.00 0.00 0.00 42 1012.2
20260510175003 59 131 1.7 4.3 0.00 0.00 0.00 43 1012.3
20260510174716 59 121 1.7 3.5 0.00 0.00 0.00 42 1012.4
20260510174003 59 125 1.7 3.5 0.00 0.00 0.00 42 1012.4
20260510173503 59 129 1.7 3.5 0.00 0.00 0.00 41 1012.4
20260510173003 60 120 1.7 4.3 0.00 0.00 0.00 41 1012.3
20260510172713 60 112 1.7 4.3 0.00 0.00 0.00 40 1012.3
20260510172004 60 94 1.7 3.5 0.00 0.00 0.00 41 1012.7
20260510171503 58 90 1.7 3.5 0.00 0.00 0.00 43 1012.6
20260510171003 61 112 1.7 3.5 0.00 0.00 0.00 40 1012.7
20260510170715 60 118 1.7 3.5 0.00 0.00 0.00 40 1012.6
20260510170003 60 129 1.7 3.5 0.00 0.00 0.00 42 1012.8
20260510165503 58 122 1.7 3.5 0.00 0.00 0.00 44 1012.9
20260510165003 59 107 1.7 3.5 0.00 0.00 0.00 43 1012.8
20260510164503 60 108 1.7 3.5 0.00 0.00 0.00 42 1012.9
20260510164003 59 114 1.7 6.1 0.00 0.00 0.00 43 1012.8
20260510163503 58 119 1.7 6.1 0.00 0.00 0.00 45 1013.1
20260510163216 58 115 1.7 6.1 0.00 0.00 0.00 45 1012.9
20260510162503 59 121 1.7 3.5 0.00 0.00 0.00 43 1013.0
20260510162003 60 129 0.9 3.5 0.00 0.00 0.00 42 1013.2
20260510161503 61 117 0.9 3.5 0.00 0.00 0.00 43 1013.1
20260510161003 59 118 1.7 4.3 0.00 0.00 0.00 44 1013.1
20260510160503 58 126 1.7 4.3 0.00 0.00 0.00 45 1012.9
20260510160003 59 116 1.7 5.2 0.00 0.00 0.00 44 1012.8
20260510155503 58 110 1.7 5.2 0.00 0.00 0.00 46 1013.2
20260510155004 59 126 1.7 7.0 0.00 0.00 0.00 47 1012.9
20260510154503 59 113 1.7 7.0 0.00 0.00 0.00 45 1013.0
20260510154003 59 116 1.7 3.5 0.00 0.00 0.00 45 1012.7
20260510153503 60 108 1.7 4.3 0.00 0.00 0.00 43 1012.8
20260510153004 59 102 1.7 4.3 0.00 0.00 0.00 45 1013.0
20260510152503 58 120 1.7 3.5 0.00 0.00 0.00 46 1013.0
20260510152003 57 128 1.7 3.5 0.00 0.00 0.00 47 1013.1
20260510151503 59 122 1.7 3.5 0.00 0.00 0.00 47 1013.3
20260510151003 59 108 1.7 5.2 0.00 0.00 0.00 47 1013.4
20260510150503 59 114 1.7 5.2 0.00 0.00 0.00 47 1013.5
20260510150214 60 101 1.7 5.2 0.00 0.00 0.00 46 1013.5
20260510145504 58 85 1.7 6.1 0.00 0.00 0.00 46 1013.5
20260510145003 58 95 1.7 5.2 0.00 0.00 0.00 48 1013.7
20260510144503 60 34 1.7 5.2 0.00 0.00 0.00 46 1013.6
20260510144216 60 5 1.7 6.1 0.00 0.00 0.00 47 1013.6
20260510143503 57 91 1.7 6.1 0.00 0.00 0.00 48 1014.1
20260510143003 60 105 1.7 5.2 0.00 0.00 0.00 48 1014.0
20260510142715 59 105 1.7 5.2 0.00 0.00 0.00 48 1013.9
20260510142213 58 109 1.7 4.3 0.00 0.00 0.00 48 1014.2
20260510141503 57 86 1.7 7.0 0.00 0.00 0.00 50 1014.0
20260510141003 58 90 1.7 7.8 0.00 0.00 0.00 52 1014.2
20260510140727 59 106 1.7 7.8 0.00 0.00 0.00 51 1014.3
20260510140003 57 101 1.7 4.3 0.00 0.00 0.00 52 1014.0
20260510135506 57 118 1.7 4.3 0.00 0.00 0.00 51 1014.0
20260510135004 58 109 1.7 6.1 0.00 0.00 0.00 52 1014.1
20260510134714 58 106 1.7 6.1 0.00 0.00 0.00 51 1014.1
20260510134003 58 103 1.7 6.1 0.00 0.00 0.00 51 1014.1
20260510133503 58 116 1.7 5.2 0.00 0.00 0.00 51 1014.2
20260510133003 58 120 1.7 5.2 0.00 0.00 0.00 53 1014.4
20260510132503 58 104 1.7 4.3 0.00 0.00 0.00 53 1014.1
20260510132003 57 103 1.7 3.5 0.00 0.00 0.00 53 1014.5
20260510131503 58 107 1.7 5.2 0.00 0.00 0.00 52 1014.2
20260510131004 58 113 1.7 5.2 0.00 0.00 0.00 53 1014.2
20260510130503 56 120 1.7 3.5 0.00 0.00 0.00 55 1014.4
20260510130006 55 105 1.7 6.1 0.00 0.00 0.00 57 1014.6
20260510125503 54 97 1.7 6.1 0.00 0.00 0.00 58 1014.6
20260510125004 55 95 1.7 6.1 0.00 0.00 0.00 59 1014.7
20260510124503 55 99 1.7 4.3 0.00 0.00 0.00 58 1014.7
20260510123503 54 110 0.9 3.5 0.00 0.00 0.00 60 1014.9
20260510123003 55 108 1.7 4.3 0.00 0.00 0.00 59 1014.9
20260510122503 54 99 1.7 4.3 0.00 0.00 0.00 61 1014.9
20260510122003 54 84 1.7 4.3 0.00 0.00 0.00 62 1015.0
20260510121503 54 78 1.7 6.1 0.00 0.00 0.00 61 1014.9
20260510121003 54 45 1.7 6.1 0.00 0.00 0.00 62 1015.1
20260510120713 53 60 1.7 6.1 0.00 0.00 0.00 63 1015.1
20260510120004 54 84 1.7 5.2 0.00 0.00 0.00 64 1015.3
20260510115504 53 86 1.7 5.2 0.00 0.00 0.00 64 1015.3
20260510115003 54 100 1.7 3.5 0.00 0.00 0.00 64 1015.2
20260510114503 54 98 1.7 5.2 0.00 0.00 0.00 64 1015.3
20260510114003 53 93 1.7 5.2 0.00 0.00 0.00 65 1015.4
20260510113716 54 90 1.7 4.3 0.00 0.00 0.00 64 1015.5
20260510113003 54 95 1.7 4.3 0.00 0.00 0.00 65 1015.2
20260510112717 54 85 1.7 3.5 0.00 0.00 0.00 65 1015.4
20260510112003 53 59 1.7 6.1 0.00 0.00 0.00 66 1015.5
20260510111503 54 100 1.7 4.3 0.00 0.00 0.00 65 1015.5
20260510111003 54 108 1.7 4.3 0.00 0.00 0.00 65 1015.7
20260510110503 55 109 1.7 4.3 0.00 0.00 0.00 63 1015.8
20260510110004 55 86 1.7 3.5 0.00 0.00 0.00 64 1015.8
20260510070503 49 99 1.7 5.2 0.00 0.00 0.00 80 1016.4
20260510070003 49 107 1.7 5.2 0.00 0.00 0.00 80 1016.5
20260510065503 49 106 1.7 5.2 0.00 0.00 0.00 80 1016.4
20260510065215 49 109 1.7 4.3 0.00 0.00 0.00 81 1016.3
20260510064713 49 108 1.7 4.3 0.00 0.00 0.00 81 1016.4
20260510064004 49 101 1.7 4.3 0.00 0.00 0.00 81 1016.2
20260510063503 49 99 1.7 4.3 0.00 0.00 0.00 81 1016.3
20260510063003 49 96 1.7 7.0 0.00 0.00 0.00 82 1016.4
20260510062503 49 100 1.7 7.0 0.00 0.00 0.00 82 1016.3
20260510062004 49 101 1.7 3.5 0.00 0.00 0.00 82 1016.4
20260510061504 49 100 1.7 5.2 0.00 0.00 0.00 82 1016.1
20260510061003 49 106 1.7 5.2 0.00 0.00 0.00 83 1016.4
20260510060717 49 111 1.7 3.5 0.00 0.00 0.00 82 1016.3
20260510060214 49 99 1.7 3.5 0.00 0.00 0.00 83 1016.0
20260510055503 49 106 1.7 3.5 0.00 0.00 0.00 83 1016.2
20260510055216 49 105 1.7 3.5 0.00 0.00 0.00 83 1016.1
20260510054503 49 100 1.7 3.5 0.00 0.00 0.00 82 1016.1
20260510054216 49 104 1.7 3.5 0.00 0.00 0.00 83 1016.0
20260510053503 49 92 0.9 3.5 0.00 0.00 0.00 83 1016.2
20260510053217 49 98 0.9 3.5 0.00 0.00 0.00 82 1016.0
20260510052503 50 99 0.9 3.5 0.00 0.00 0.00 82 1016.1
20260510052213 50 98 0.9 3.5 0.00 0.00 0.00 81 1016.1
20260510051716 49 88 1.7 3.5 0.00 0.00 0.00 81 1016.2
20260510051003 49 94 1.7 4.3 0.00 0.00 0.00 81 1016.0
20260510050503 49 97 1.7 3.5 0.00 0.00 0.00 82 1016.2
20260510050004 49 94 0.9 3.5 0.00 0.00 0.00 82 1016.3
20260510045503 50 113 0.9 2.6 0.00 0.00 0.00 82 1016.3
20260510045216 50 109 0.9 2.6 0.00 0.00 0.00 81 1016.2
20260510044503 49 101 1.7 3.5 0.00 0.00 0.00 81 1016.2
20260510044217 49 105 0.9 3.5 0.00 0.00 0.00 81 1016.4
20260510043503 49 88 1.7 3.5 0.00 0.00 0.00 82 1016.3
20260510043003 49 64 0.9 3.5 0.00 0.00 0.00 82 1016.3
20260510042503 49 85 0.9 3.5 0.00 0.00 0.00 82 1016.3
20260510042214 49 101 0.9 2.6 0.00 0.00 0.00 83 1016.5
20260510041503 49 96 0.9 3.5 0.00 0.00 0.00 82 1016.3
20260510041003 49 93 1.7 3.5 0.00 0.00 0.00 83 1016.6
20260510040503 49 102 1.7 3.5 0.00 0.00 0.00 83 1016.6
20260510040004 49 99 1.7 3.5 0.00 0.00 0.00 83 1016.5
20260510035714 49 101 1.7 3.5 0.00 0.00 0.00 83 1016.6
20260510035003 49 110 0.9 3.5 0.00 0.00 0.00 83 1016.6
20260510034503 49 78 1.7 3.5 0.00 0.00 0.00 83 1016.6
20260510034003 49 72 1.7 3.5 0.00 0.00 0.00 83 1016.6
20260510033503 49 98 0.9 2.6 0.00 0.00 0.00 84 1016.5
20260510033003 49 101 0.9 2.6 0.00 0.00 0.00 83 1016.7
20260510032717 49 112 0.9 2.6 0.00 0.00 0.00 84 1016.5
20260510032003 49 115 0.9 3.5 0.00 0.00 0.00 84 1016.6
20260510031503 49 102 0.9 3.5 0.00 0.00 0.00 84 1016.6
20260510031215 49 100 0.9 3.5 0.00 0.00 0.00 84 1016.9
20260510030503 49 105 0.9 2.6 0.00 0.00 0.00 85 1016.7
20260510030004 49 103 0.9 2.6 0.00 0.00 0.00 85 1016.7
20260510025503 49 105 0.9 2.6 0.00 0.00 0.00 85 1016.7
20260510025217 49 109 1.7 3.5 0.00 0.00 0.00 84 1016.6
20260510024504 49 106 1.7 3.5 0.00 0.00 0.00 84 1016.6
20260510024214 49 97 0.9 3.5 0.00 0.00 0.00 84 1016.8
20260510023503 49 84 0.9 3.5 0.00 0.00 0.00 84 1016.8
20260510023003 49 97 1.7 3.5 0.00 0.00 0.00 84 1016.8
20260510022504 49 115 1.7 3.5 0.00 0.00 0.00 83 1016.7
20260510022003 49 108 1.7 3.5 0.00 0.00 0.00 83 1016.8
20260510021503 49 105 1.7 2.6 0.00 0.00 0.00 83 1016.9
20260510021004 49 105 1.7 3.5 0.00 0.00 0.00 83 1017.0
20260510020503 49 95 1.7 3.5 0.00 0.00 0.00 82 1016.9
20260510020003 49 93 1.7 3.5 0.00 0.00 0.00 83 1017.1
20260510015503 49 107 1.7 3.5 0.00 0.00 0.00 83 1016.9
20260510015213 49 108 1.7 3.5 0.00 0.00 0.00 83 1017.0
20260510014504 49 100 1.7 5.2 0.00 0.00 0.00 83 1016.9
20260510014003 49 93 1.7 5.2 0.00 0.00 0.00 83 1017.2
20260510013503 49 88 1.7 5.2 0.00 0.00 0.00 83 1016.8
20260510013003 49 102 1.7 5.2 0.00 0.00 0.00 83 1016.9
20260510012504 49 110 1.7 4.3 0.00 0.00 0.00 84 1017.0
20260510012216 49 110 1.7 4.3 0.00 0.00 0.00 84 1017.0
20260510011503 49 101 1.7 5.2 0.00 0.00 0.00 84 1016.8
20260510011003 49 111 1.7 4.3 0.00 0.00 0.00 84 1016.8
20260510010503 49 73 1.7 9.6 0.00 0.00 0.00 84 1017.0
20260510010003 49 66 1.7 9.6 0.00 0.00 0.00 83 1017.1
20260510005503 49 99 1.7 4.3 0.00 0.00 0.00 84 1016.9
20260510005003 49 99 1.7 4.3 0.00 0.00 0.00 84 1017.1
20260510004503 49 100 1.7 4.3 0.00 0.00 0.00 84 1017.1
20260510004003 50 98 1.7 3.5 0.00 0.00 0.00 84 1016.8
20260510003503 50 71 1.7 3.5 0.00 0.00 0.00 83 1016.8
20260510003004 50 74 1.7 4.3 0.00 0.00 0.00 83 1016.9
20260510002503 50 94 1.7 4.3 0.00 0.00 0.00 84 1017.0
20260510002004 49 97 0.9 3.5 0.00 0.00 0.00 84 1016.8
20260510001503 49 109 0.9 3.5 0.00 0.00 0.00 84 1016.8
20260510001217 49 108 0.9 3.5 0.00 0.00 0.00 84 1016.7
20260510000503 50 95 1.7 4.3 0.00 0.00 0.00 84 1016.6
20260510000003 50 90 1.7 7.0 0.00 0.00 0.00 83 1016.9
20260509235503 50 106 1.7 7.0 0.00 0.00 0.00 83 1016.6
20260509235003 50 126 0.9 3.5 0.00 0.00 0.00 83 1016.8
20260509234503 50 77 1.7 7.8 0.00 0.00 0.00 83 1016.7
20260509234003 50 55 1.7 7.8 0.00 0.00 0.00 83 1016.6
20260509233503 51 90 1.7 5.2 0.00 0.00 0.00 82 1016.6
20260509233003 51 90 1.7 5.2 0.00 0.00 0.00 82 1016.6
20260509232503 51 55 1.7 3.5 0.00 0.00 0.00 82 1016.8
20260509232217 51 90 1.7 3.5 0.00 0.00 0.00 82 1016.7
20260509231503 51 68 1.7 4.3 0.00 0.00 0.00 81 1016.7
20260509231003 51 65 1.7 5.2 0.00 0.00 0.00 81 1016.6
20260509230503 52 108 1.7 5.2 0.00 0.00 0.00 81 1016.7
20260509230224 52 110 1.7 5.2 0.00 0.00 0.00 81 1016.7
20260509225503 52 111 1.7 6.1 0.00 0.00 0.00 80 1016.6
20260509225003 52 118 1.7 6.1 0.00 0.00 0.00 80 1016.5
20260509224503 52 117 1.7 5.2 0.00 0.00 0.00 80 1016.4
20260509224004 52 112 1.7 3.5 0.00 0.00 0.00 79 1016.3
20260509223503 53 115 1.7 5.2 0.00 0.00 0.00 79 1016.4
20260509223003 53 121 1.7 6.1 0.00 0.00 0.00 78 1016.3
20260509222503 53 115 1.7 6.1 0.00 0.00 0.00 78 1016.2
20260509222003 53 108 1.7 4.3 0.00 0.00 0.00 78 1016.4
20260509221503 53 109 1.7 3.5 0.00 0.00 0.00 78 1016.3
20260509221003 53 114 1.7 3.5 0.00 0.00 0.00 77 1016.4
20260509220503 53 106 1.7 3.5 0.00 0.00 0.00 77 1016.6
20260509220003 53 96 1.7 3.5 0.00 0.00 0.00 77 1016.4
20260509215503 53 104 1.7 3.5 0.00 0.00 0.00 78 1016.4
20260509215004 53 98 0.9 3.5 0.00 0.00 0.00 79 1016.6
20260509214713 53 94 0.9 2.6 0.00 0.00 0.00 80 1016.5
20260509214003 54 84 0.9 4.3 0.00 0.00 0.00 80 1016.5
20260509213503 54 51 0.9 4.3 0.00 0.00 0.00 80 1016.4
20260509213004 54 75 0.9 3.5 0.00 0.00 0.00 80 1016.5
20260509212503 54 67 0.9 3.5 0.00 0.00 0.00 80 1016.4
20260509212003 54 25 0.9 3.5 0.00 0.00 0.00 80 1016.4
20260509211503 54 38 0.9 3.5 0.00 0.00 0.00 80 1016.3
20260509211214 54 68 0.9 2.6 0.00 0.00 0.00 80 1016.3
20260509210503 55 48 0.9 3.5 0.00 0.00 0.00 80 1016.2
20260509210215 55 34 0.9 3.5 0.00 0.00 0.00 79 1016.0
20260509205503 55 28 0.9 4.3 0.00 0.00 0.00 79 1015.8
20260509205003 56 22 0.9 4.3 0.00 0.00 0.00 78 1015.7
20260509204714 56 18 0.9 4.3 0.00 0.00 0.00 78 1016.0
20260509204003 56 5 0.9 4.3 0.00 0.00 0.00 76 1015.8
20260509203504 57 354 0.9 4.3 0.00 0.00 0.00 75 1015.8
20260509203218 57 354 0.9 4.3 0.00 0.00 0.00 75 1015.9
20260509202503 58 33 0.9 3.5 0.00 0.01 0.00 73 1015.5